Tracking 19572 objects as of 23-Feb-2019
HD Live streaming from Space Station
objects crossing your sky now

OPS 8464 (TRANSIT 5B-7)

Track OPS 8464 (TRANSIT 5B-7) now!
10-day predictions
OPS 8464 (TRANSIT 5B-7) is classified as:


NORAD ID: 1514
Int'l Code: 1965-065F
Perigee: 1,081.3 km
Apogee: 1,189.3 km
Inclination: 89.8 °
Period: 107.9 minutes
Semi major axis: 7506 km
RCS: 1.5965 m2 (large)
Launch date: August 13, 1965
Source: United States (US)
Launch site: AIR FORCE WESTERN TEST RANGE (AFWTR)
aabbcc
Your satellite tracking list
Your tracking list is empty




NASA's NSSDC Master Catalog

Two Line Element Set (TLE):
1  1514U 65065F   19054.55708758  .00000020  00000-0  19506-4 0  9994
2  1514  89.8288 251.3698 0071949 120.3548 248.7307 13.34937922605457
Source of the keplerian elements: AFSPC